星链-34827 (STARLINK-34827)

导读 | 豆包AI

STARLINK-34827是美国于2025年7月30日发射的星链系列卫星,隶属于SpaceX公司打造的星链卫星互联网星座系统。星链计划旨在构建全球覆盖的低轨卫星互联网网络,为全球偏远地区、海上以及空中等场景提供高速网络接入服务,该卫星的发射是星链星座组网扩容进程中的一步,助力完善星链系统的服务覆盖能力。

基本信息
目录编号:
65038
目录名称:
STARLINK-34827
国际标识:
2025-161Z
轨道中心:
EARTH
卫星名称:
星链-34827
卫星全名:
星链-34827 (STARLINK-34827)
卫星状态:
在轨 (已飞行227 天)
发射日期:
2025-07-30 UTC
国别 :
美国 (US)
星等 :
--
轨道信息
数据来源 国际轨道数据 AOE轨道数据
星历时间 2026-03-14T06:22:07+0800
15小时前
查看轨道信息
2026-03-11T17:00:00+0800
3天前
查看轨道信息
半长轴 6853.289km 6853.327km
偏心率 0.0000935 0.0001465
轨道倾角 53.159° 53.158°
近地点辐角 75.591° 49.723°
升交点赤经 274.188° 286.061°
平近点角 284.520° 256.678°
近地点 474.511km 474.185km
远地点 475.793km 476.195km
周期 94.104分钟 94.105分钟
每日圈数 15.302214 15.302084
详细信息
固有亮度:
5
最大亮度:
2.5
卫星平台:
Starlink V1.0
覆盖范围:
全球
运营商:
太空探索技术公司
运营商所在国:
美国
制造商(研发单位):
太空探索技术公司
制造商所在国:
美国
使用方式:
暂无
卫星简介
Starlink 计划是 SpaceX 推出的全球卫星互联网项目,通过发射低轨道卫星,为全球尤其是偏远地区提供高速、低延迟的互联网服务。自 2019 年起,Starlink 已部署数千颗卫星,旨在缩小全球数字鸿沟,推动互联网普及。该项目还为军事、航空等行业提供通信支持,带来广泛经济效益。
2D轨道图
3D轨道图
轨道高度分析图
轨道倾角分析图
轨道综合分析图
查看轨道综合分析图